TimeCDT,TemperatureF,Dew PointF,Humidity,Sea Level PressureIn,VisibilityMPH,Wind Direction,Wind SpeedMPH,Gust SpeedMPH,PrecipitationIn,Events,Conditions,WindDirDegrees,DateUTC
12:13 AM,39.2,28.4,65,29.99,10.0,Calm,Calm,-,N/A,,Clear,0,2012-09-24 05:13:00
12:33 AM,41.0,30.2,65,29.97,10.0,SW,5.8,-,N/A,,Clear,230,2012-09-24 05:33:00
12:53 AM,41.0,30.2,65,29.97,10.0,WSW,6.9,-,N/A,,Clear,250,2012-09-24 05:53:00
1:13 AM,42.8,30.2,61,29.95,10.0,WSW,8.1,-,N/A,,Clear,250,2012-09-24 06:13:00
1:33 AM,42.8,30.2,61,29.95,10.0,WSW,9.2,-,N/A,,Clear,240,2012-09-24 06:33:00
1:53 AM,41.0,30.2,65,29.94,10.0,SW,6.9,-,N/A,,Clear,230,2012-09-24 06:53:00
2:13 AM,41.0,28.4,61,29.93,10.0,WSW,4.6,-,N/A,,Clear,240,2012-09-24 07:13:00
2:33 AM,41.0,28.4,61,29.91,10.0,WSW,6.9,-,N/A,,Clear,240,2012-09-24 07:33:00
2:53 AM,42.8,28.4,57,29.90,10.0,WSW,6.9,-,N/A,,Clear,240,2012-09-24 07:53:00
3:13 AM,42.8,28.4,57,29.89,10.0,WSW,8.1,-,N/A,,Clear,240,2012-09-24 08:13:00
3:33 AM,42.8,28.4,57,29.88,10.0,WSW,9.2,16.1,N/A,,Clear,240,2012-09-24 08:33:00
3:52 AM,42.8,28.4,57,29.86,10.0,WSW,10.4,-,N/A,,Clear,240,2012-09-24 08:52:00
4:13 AM,42.8,28.4,57,29.84,10.0,WSW,8.1,-,N/A,,Clear,240,2012-09-24 09:13:00
4:33 AM,42.8,28.4,57,29.83,10.0,WSW,9.2,-,N/A,,Clear,240,2012-09-24 09:33:00
4:52 AM,42.8,28.4,57,29.82,10.0,SW,6.9,19.6,N/A,,Clear,230,2012-09-24 09:52:00
5:13 AM,44.6,28.4,53,29.81,10.0,SW,12.7,16.1,N/A,,Clear,230,2012-09-24 10:13:00
5:33 AM,44.6,28.4,53,29.80,10.0,SW,10.4,17.3,N/A,,Clear,230,2012-09-24 10:33:00
5:52 AM,44.6,28.4,53,29.79,10.0,SW,10.4,17.3,N/A,,Clear,230,2012-09-24 10:52:00
6:13 AM,44.6,28.4,53,29.77,10.0,SW,8.1,17.3,N/A,,Clear,220,2012-09-24 11:13:00
6:33 AM,44.6,28.4,53,29.76,10.0,SW,10.4,-,N/A,,Clear,230,2012-09-24 11:33:00
6:53 AM,44.6,28.4,53,29.75,10.0,SW,9.2,-,N/A,,Clear,220,2012-09-24 11:53:00
7:12 AM,44.6,28.4,53,29.74,10.0,SW,9.2,-,N/A,,Clear,220,2012-09-24 12:12:00
7:33 AM,44.6,28.4,53,29.73,10.0,SW,11.5,-,N/A,,Clear,220,2012-09-24 12:33:00
7:52 AM,44.6,28.4,53,29.72,10.0,SW,8.1,16.1,N/A,,Clear,220,2012-09-24 12:52:00
8:13 AM,44.6,28.4,53,29.71,10.0,SW,9.2,-,N/A,,Clear,230,2012-09-24 13:13:00
8:33 AM,46.4,28.4,50,29.70,10.0,SW,6.9,-,N/A,,Clear,230,2012-09-24 13:33:00
8:52 AM,48.2,30.2,50,29.69,10.0,SW,11.5,-,N/A,,Clear,230,2012-09-24 13:52:00
9:13 AM,48.2,30.2,50,29.68,10.0,SW,9.2,19.6,N/A,,Clear,230,2012-09-24 14:13:00
9:33 AM,51.8,30.2,44,29.67,10.0,SW,9.2,-,N/A,,Clear,230,2012-09-24 14:33:00
9:52 AM,53.6,32.0,44,29.66,10.0,WSW,5.8,18.4,N/A,,Clear,240,2012-09-24 14:52:00
10:13 AM,57.2,30.2,36,29.65,10.0,West,18.4,24.2,N/A,,Clear,260,2012-09-24 15:13:00
10:52 AM,57.2,30.2,36,29.64,10.0,West,17.3,29.9,N/A,,Scattered Clouds,260,2012-09-24 15:52:00
11:13 AM,59.0,30.2,34,29.64,10.0,WSW,16.1,26.5,N/A,,Scattered Clouds,250,2012-09-24 16:13:00
11:33 AM,60.8,32.0,34,29.63,10.0,West,12.7,18.4,N/A,,Scattered Clouds,270,2012-09-24 16:33:00
11:53 AM,60.8,32.0,34,29.62,10.0,West,13.8,26.5,N/A,,Scattered Clouds,260,2012-09-24 16:53:00
12:13 PM,60.8,32.0,34,29.62,10.0,West,17.3,25.3,N/A,,Mostly Cloudy,270,2012-09-24 17:13:00
12:33 PM,60.8,33.8,36,29.62,10.0,West,10.4,23.0,N/A,,Mostly Cloudy,260,2012-09-24 17:33:00
12:53 PM,62.6,35.6,37,29.61,10.0,West,13.8,19.6,N/A,,Mostly Cloudy,280,2012-09-24 17:53:00
1:13 PM,60.8,35.6,39,29.61,10.0,WNW,16.1,21.9,N/A,,Mostly Cloudy,290,2012-09-24 18:13:00
1:32 PM,62.6,35.6,37,29.62,10.0,West,18.4,32.2,N/A,,Scattered Clouds,280,2012-09-24 18:32:00
1:53 PM,64.4,35.6,34,29.62,10.0,WNW,17.3,26.5,N/A,,Clear,300,2012-09-24 18:53:00
2:13 PM,62.6,33.8,34,29.63,10.0,NW,16.1,23.0,N/A,,Clear,320,2012-09-24 19:13:00
2:32 PM,62.6,33.8,34,29.63,10.0,NW,17.3,26.5,N/A,,Clear,320,2012-09-24 19:32:00
2:53 PM,62.6,33.8,34,29.64,10.0,NNW,12.7,20.7,N/A,,Clear,330,2012-09-24 19:53:00
3:13 PM,62.6,33.8,34,29.65,10.0,NW,13.8,25.3,N/A,,Clear,310,2012-09-24 20:13:00
3:32 PM,62.6,32.0,32,29.65,10.0,NW,16.1,27.6,N/A,,Clear,320,2012-09-24 20:32:00
3:53 PM,62.6,33.8,34,29.66,10.0,NNW,15.0,28.8,N/A,,Clear,330,2012-09-24 20:53:00
4:13 PM,62.6,33.8,34,29.66,10.0,NW,13.8,24.2,N/A,,Clear,310,2012-09-24 21:13:00
4:32 PM,62.6,33.8,34,29.67,10.0,NW,15.0,24.2,N/A,,Clear,320,2012-09-24 21:32:00
4:53 PM,62.6,33.8,34,29.68,10.0,NW,11.5,20.7,N/A,,Clear,310,2012-09-24 21:53:00
5:13 PM,60.8,30.2,31,29.69,10.0,WNW,12.7,19.6,N/A,,Clear,300,2012-09-24 22:13:00
5:32 PM,59.0,32.0,36,29.70,10.0,NW,11.5,19.6,N/A,,Clear,310,2012-09-24 22:32:00
5:53 PM,57.2,33.8,41,29.72,10.0,North,6.9,18.4,N/A,,Clear,350,2012-09-24 22:53:00
6:12 PM,57.2,33.8,41,29.73,10.0,NNW,10.4,19.6,N/A,,Clear,340,2012-09-24 23:12:00
6:33 PM,55.4,33.8,44,29.74,10.0,North,5.8,-,N/A,,Clear,350,2012-09-24 23:33:00
6:53 PM,53.6,33.8,47,29.75,10.0,NNW,5.8,-,N/A,,Clear,340,2012-09-24 23:53:00
7:12 PM,51.8,33.8,50,29.75,10.0,North,3.5,-,N/A,,Clear,350,2012-09-25 00:12:00
7:33 PM,50.0,33.8,54,29.76,10.0,Calm,Calm,-,N/A,,Clear,0,2012-09-25 00:33:00
7:51 PM,48.2,33.8,58,29.77,10.0,Calm,Calm,-,N/A,,Clear,0,2012-09-25 00:51:00
8:13 PM,48.2,33.8,58,29.78,10.0,Calm,Calm,-,N/A,,Clear,0,2012-09-25 01:13:00
8:33 PM,46.4,33.8,62,29.79,10.0,Calm,Calm,-,N/A,,Clear,0,2012-09-25 01:33:00
8:53 PM,46.4,32.0,57,29.79,10.0,Calm,Calm,-,N/A,,Clear,0,2012-09-25 01:53:00
9:13 PM,46.4,32.0,57,29.80,10.0,Calm,Calm,-,N/A,,Clear,0,2012-09-25 02:13:00
9:33 PM,44.6,32.0,61,29.81,10.0,Calm,Calm,-,N/A,,Clear,0,2012-09-25 02:33:00
9:53 PM,42.8,32.0,66,29.82,10.0,Calm,Calm,-,N/A,,Clear,0,2012-09-25 02:53:00
10:13 PM,37.4,32.0,81,29.82,10.0,Calm,Calm,-,N/A,,Clear,0,2012-09-25 03:13:00
10:33 PM,35.6,32.0,87,29.83,10.0,Calm,Calm,-,N/A,,Clear,0,2012-09-25 03:33:00
10:53 PM,35.6,32.0,87,29.84,10.0,Calm,Calm,-,N/A,,Clear,0,2012-09-25 03:53:00
11:53 PM,32.0,30.2,93,29.84,10.0,Calm,Calm,-,N/A,,Clear,0,2012-09-25 04:53:00